Flag for Germany Weather past 2 weeks in Tuttlingen, Baden-Württemberg, Germany

Now
45 °F

Broken clouds.


Feels Like: 40 °F
Forecast: 31 / 61 °F
Wind: 9 mph from Northeast

Location: Donaueschingen / Villingen


UV Index: 3 (Moderate)

Visibility: N/A


Pressure: 29.80 "Hg

Humidity: 100%

Dew point: 45 °F

Location of TuttlingenLocation

Historic Weather in Tuttlingen

°F

Tuttlingen temperature yesterday

Maximum temperature yesterday: 46 °F (at 10:50 AM)
Minimum temperature yesterday: 34 °F (at 7:20 PM)
Average temperature yesterday: 40 °F

Past Weeks' High & Low Weather Summary

 TemperatureHumidityPressure
High66 °F (Apr 11, 2:50 PM)100% (Apr 5, 9:20 AM)30.30 "Hg (Apr 5, 9:20 AM)
Low30 °F (Apr 16, 8:20 AM)20% (Apr 17, 4:20 PM)29.74 "Hg (Apr 4, 3:20 PM)
Average51 °F63%30.08 "Hg
* Reported Apr 4 3:20 PM — Apr 19 3:20 PM, Tuttlingen, Weather by CustomWeather, © 2014

Note: Actual official high and low records may vary slightly from our data, if they occured in-between our weather recording intervals... More about our weather records

Advertising

Historic Weather Conditions — Data for Previous 24 hours

 ConditionsComfort  
Time TempWeatherWind HumidityBarometerVisibility
3:20 PM
Apr 19
43 °FPartly sunny.12 mph100%29.80 "Hg5 mi
2:50 PM43 °FPartly sunny.12 mph100%29.83 "Hg5 mi
2:20 PM39 °FPartly sunny.9 mph100%29.83 "Hg5 mi
1:50 PM39 °FPartly sunny.10 mph100%29.83 "Hg4 mi
1:20 PM39 °FPartly sunny.8 mph100%29.83 "Hg4 mi
12:50 PM37 °FPartly sunny.9 mph100%29.83 "Hg4 mi
12:20 PM37 °FPassing clouds.9 mph100%29.83 "Hg4 mi
11:50 AM37 °FPassing clouds.9 mph100%29.83 "Hg4 mi
11:20 AM37 °FPassing clouds.10 mph100%29.83 "Hg4 mi
10:50 AM37 °FPassing clouds.12 mph100%29.83 "Hg4 mi
9:50 AM37 °FPassing clouds.15 mph100%29.83 "Hg4 mi
9:20 AM37 °FScattered clouds.13 mph100%29.83 "HgN/A
8:20 PM
Apr 18
34 °FScattered clouds.1 mph100%29.92 "HgN/A
7:50 PM34 °FScattered clouds.5 mph100%29.92 "HgN/A
7:20 PM34 °FSnow flurries. Scattered clouds.5 mph100%29.92 "Hg4 mi
6:50 PM36 °FRain showers. Scattered clouds.14 mph100%29.92 "Hg3 mi
6:20 PM41 °FScattered showers. Scattered clouds.10 mph87%29.89 "HgN/A
5:50 PM41 °FScattered showers. Scattered clouds.10 mph100%29.86 "HgN/A
5:20 PM37 °FBroken clouds.12 mph100%29.86 "HgN/A
Weather by CustomWeather, © 2014

See weather overview